{"data":{"norad_id":67262,"epoch":"2026-09-20T22:45:31.907808Z","epoch_age_seconds":64268,"freshness":"FRESH","line1":"1 67262U 25313Q   26263.94828597  .00007083  00000+0  28227-3 0  9999","line2":"2 67262  97.3856 337.4867 0014294  38.2176 322.0073 15.25426545 40558","mean_motion":15.25426545,"eccentricity":0.0014294,"inclination_deg":97.3856,"raan_deg":337.4867,"arg_perigee_deg":38.2176,"mean_anomaly_deg":322.0073,"bstar":0.00028227,"rev_number":4055,"period_min":94.399825722188,"perigee_km":479.68829231906,"apogee_km":499.32150698178,"semimajor_km":6867.6418996504,"source":"CELESTRAK","updated_at":"2026-09-21T09:00:16.514688Z"}}